STARLINK-32704, 62826

Orbit data source: Space-Track

STARLINK-32704, 62826 is a payload satellite owned by SpaceX/Seattle (US) in LEO that was launched on Fri, 24 Jan 2025 UTC via an FALCON 9 launch vehicle from the Air Force Western Test Range (AFWTR). Payload-class satellites include a variety of spacecraft equipped with specific instruments for various scientific and technological missions. These include communications satellites like Starlink; space stations such as the ISS; scientific satellites like the Hubble; Earth observation satellites from companies like Planet Labs, Umbra, and HawkEye 360; GPS; miniature CubeSats for education and research; and military/defense satellites.

Loading next visibility...
Identifier
62826, 2025-018W
Orbit
LEO
Last TLE update
7 hours ago
Origin
Manufacturer
SpaceX/Seattle
Mission
Operational Commercial Communications
Bus & Motor
STARLINK V2M, Unknown motor
Mass
730 kg wet, ~700 kg dry
Launch date (UTC)
2025-01-24 (5 months ago)
Launch vehicle
FALCON 9
Launch site
Air Force Western Test Range (AFWTR)
Object type
Payload
Rocket body
Debris
Shape & HBR
Box + 2 Pan, 29 m
Radar Cross Section
33.884 m², Large (>1 m²)

Expand to show TLE details & history

TLE from 7 hours ago
0 STARLINK-32704
1 62826U 25018W   25182.90285349  .00015824  00000-0  54472-3 0  9993
2 62826  53.1640  34.3575 0001021 356.7787   3.3207 15.30232150 24776
Epoch: 2025-07-01T21:40Z
TLE epoch observation values (Epoch: 2025-07-01T21:40:06.541Z)
Latitude
-0.00003°
Longitude
149.13859°
Altitude
475.321 km
Speed
7.63 km/s
True Right ascension
02h 17m 25s
True Declination
0° 00' 00"
Sunlit
Object was in daylight at epoch
Visualization orbit readout
Latitude
8.42863°
Longitude
-38.55527°
Altitude
475.982 km
Speed
7.629 km/s
Apparent Right ascension
10h 42m 35s
Apparent Declination
-35° 44' 32"
Sunlit
Object is in daylight
Visualization observer readout
Local Sidereal Time
16:21:59
Azimuth
238.531° WSW
Elevation
-18.599°
Doppler factor
1
Orbital elements
Apogee altitude
476.075 km
Perigee altitude
474.675 km
Semi-major axis
6,853.512 km
Eccentricity
0.0001
Inclination
53.164°
RAAN
34.3575°
Arg. of periapsis
356.7787°
True anomaly
Unknown
Mean anomaly
3.3207°
Eccentric anomaly
Unknown
Mean motion
3.82537 °/min
Orbital period
94.11 mins
BSTAR
0.00054472
Loading maneuver chart data...
Loading SW <> Apogee altitude chart data...
Loading historical data...
Loading historical data...
Loading historical data...
Loading historical data...
Loading historical data...
Loading historical data...
Loading historical data...

STARLINK-32704 Visibility forecast

Observer location: undefined°, undefined°

Span
Click to sort rows by Start time (UTC) header in descending order
Start Az.
Max El. time (UTC)
Max El. Az.
Max El.
End time (UTC)
End Az.
7 mins2025-07-02 16:38:32.632Z220.799° SW2025-07-02 16:42:32.632Z91.941° ESE41.456°2025-07-02 16:45:32.632Z54.595° ENE
4 mins2025-07-02 18:18:32.632Z297.616° NW2025-07-02 18:20:32.632Z339.972° N19.527°2025-07-02 18:22:32.632Z18.651° NNE
4 mins2025-07-02 21:36:32.632Z342.325° N2025-07-02 21:38:32.632Z16.215° NNE14.61°2025-07-02 21:40:32.632Z51.102° ENE
5 mins2025-07-02 23:15:32.632Z328.827° NNW2025-07-02 23:17:32.632Z66.578° ENE39.081°2025-07-02 23:20:32.632Z116.539° SE
|